�������l�o���
Date,Time,MP-1(��Sv/h),MP-2(��Sv/h),MP-3(��Sv/h),MP-4(��Sv/h),MP-5(��Sv/h),MP-6(��Sv/h),MP-7(��Sv/h),MP-8(��Sv/h),����,����(m/s),���J
2020/03/24,00:00,0.708,1.028,0.678,1.253,0.898,0.401,0.706,0.669,�k�k��,4.4,��
2020/03/24,00:10,0.706,1.025,0.678,1.257,0.897,0.402,0.704,0.668,�k�k��,4.1,��
2020/03/24,00:20,0.706,1.025,0.678,1.255,0.896,0.401,0.704,0.668,�k�k��,4.9,��
2020/03/24,00:30,0.709,1.026,0.678,1.253,0.896,0.402,0.705,0.667,�k�k��,5.6,��
2020/03/24,00:40,0.710,1.028,0.679,1.252,0.895,0.403,0.705,0.669,�k�k��,5.7,��
2020/03/24,00:50,0.707,1.028,0.678,1.254,0.897,0.404,0.704,0.669,�k�k��,6.0,��
2020/03/24,01:00,0.706,1.027,0.678,1.254,0.895,0.401,0.705,0.668,�k�k��,6.2,��
2020/03/24,01:10,0.709,1.029,0.677,1.253,0.896,0.403,0.704,0.668,�k�k��,5.7,��
2020/03/24,01:20,0.708,1.026,0.679,1.252,0.898,0.402,0.706,0.670,�k�k��,5.5,��
2020/03/24,01:30,0.708,1.027,0.679,1.253,0.895,0.403,0.705,0.669,�k��,4.9,��
2020/03/24,01:40,0.708,1.027,0.679,1.254,0.897,0.403,0.706,0.669,�k��,5.3,��
2020/03/24,01:50,0.709,1.029,0.679,1.254,0.897,0.402,0.705,0.668,�k��,4.7,��
2020/03/24,02:00,0.709,1.028,0.677,1.252,0.897,0.402,0.707,0.669,�k��,6.3,��
2020/03/24,02:10,0.708,1.027,0.679,1.252,0.896,0.403,0.706,0.669,�k�k��,5.3,��
2020/03/24,02:20,0.708,1.026,0.678,1.254,0.895,0.403,0.706,0.667,�k��,3.9,��
2020/03/24,02:30,0.709,1.027,0.680,1.254,0.895,0.402,0.707,0.669,�k�k��,5.3,��
2020/03/24,02:40,0.708,1.026,0.680,1.252,0.896,0.402,0.706,0.670,�k�k��,5.6,��
2020/03/24,02:50,0.707,1.024,0.679,1.253,0.896,0.402,0.706,0.667,�k�k��,5.2,��
2020/03/24,03:00,0.708,1.027,0.678,1.253,0.896,0.404,0.707,0.671,�k��,4.8,��
2020/03/24,03:10,0.708,1.028,0.679,1.254,0.897,0.402,0.705,0.668,�k��,4.8,�L
2020/03/24,03:20,0.707,1.026,0.679,1.255,0.897,0.403,0.706,0.671,�k��,2.6,�L
2020/03/24,03:30,0.709,1.026,0.679,1.255,0.896,0.403,0.705,0.670,�k��,2.3,��
2020/03/24,03:40,0.707,1.026,0.678,1.252,0.896,0.403,0.706,0.668,��,2.0,��
2020/03/24,03:50,0.707,1.026,0.680,1.255,0.896,0.403,0.706,0.668,���k��,1.5,��
2020/03/24,04:00,0.708,1.026,0.678,1.253,0.897,0.403,0.705,0.669,���k��,1.2,��
2020/03/24,04:10,0.707,1.028,0.677,1.255,0.897,0.402,0.707,0.668,��,1.2,��
2020/03/24,04:20,0.708,1.027,0.678,1.255,0.896,0.402,0.705,0.669,�k��,1.2,��
2020/03/24,04:30,0.706,1.026,0.676,1.251,0.896,0.402,0.705,0.669,�k��,1.4,��
2020/03/24,04:40,0.706,1.026,0.679,1.255,0.896,0.402,0.704,0.669,���k��,2.9,��
2020/03/24,04:50,0.706,1.026,0.678,1.253,0.896,0.401,0.704,0.669,���k��,3.2,��
2020/03/24,05:00,0.705,1.025,0.677,1.254,0.895,0.400,0.704,0.668,���k��,3.1,��
2020/03/24,05:10,0.706,1.027,0.678,1.252,0.893,0.401,0.705,0.668,���k��,3.5,��
2020/03/24,05:20,0.705,1.027,0.677,1.251,0.896,0.400,0.706,0.669,�k��,4.5,��
2020/03/24,05:30,0.705,1.023,0.677,1.252,0.895,0.401,0.705,0.669,�k��,5.0,��
2020/03/24,05:40,0.705,1.027,0.679,1.254,0.894,0.401,0.704,0.669,�k�k��,4.8,��
2020/03/24,05:50,0.707,1.026,0.675,1.253,0.895,0.400,0.705,0.668,�k�k��,4.6,��
2020/03/24,06:00,0.708,1.025,0.676,1.253,0.895,0.401,0.705,0.669,�k�k��,5.0,��
2020/03/24,06:10,0.705,1.025,0.677,1.253,0.896,0.401,0.705,0.668,�k�k��,4.7,��
2020/03/24,06:20,0.708,1.025,0.678,1.250,0.895,0.401,0.706,0.668,�k,5.0,��
2020/03/24,06:30,0.706,1.026,0.677,1.251,0.895,0.402,0.704,0.667,�k�k��,4.5,��
2020/03/24,06:40,0.705,1.025,0.678,1.251,0.894,0.400,0.705,0.668,�k��,4.0,��
2020/03/24,06:50,0.705,1.025,0.678,1.252,0.895,0.402,0.705,0.668,�k��,5.6,��
2020/03/24,07:00,0.708,1.026,0.678,1.253,0.895,0.401,0.704,0.669,�k��,6.4,��
2020/03/24,07:10,0.706,1.022,0.675,1.251,0.893,0.402,0.704,0.667,�k��,6.2,��
2020/03/24,07:20,0.706,1.025,0.677,1.254,0.896,0.402,0.706,0.667,�k��,7.3,��
2020/03/24,07:30,0.707,1.025,0.676,1.251,0.896,0.401,0.705,0.669,�k��,8.2,��
2020/03/24,07:40,0.709,1.026,0.677,1.250,0.895,0.402,0.706,0.669,�k��,7.9,��
2020/03/24,07:50,0.708,1.026,0.676,1.252,0.895,0.400,0.706,0.667,�k��,7.9,��
2020/03/24,08:00,0.707,1.025,0.678,1.252,0.894,0.401,0.706,0.668,�k��,11.3,��
2020/03/24,08:10,0.706,1.024,0.676,1.251,0.897,0.403,0.706,0.666,�k�k��,9.8,��
2020/03/24,08:20,0.708,1.024,0.677,1.254,0.894,0.402,0.706,0.670,�k��,10.5,��
2020/03/24,08:30,0.710,1.025,0.677,1.253,0.895,0.402,0.708,0.667,�k��,11.0,��
2020/03/24,08:40,0.709,1.025,0.676,1.251,0.896,0.400,0.706,0.667,�k��,11.0,��
2020/03/24,08:50,0.709,1.023,0.675,1.251,0.895,0.402,0.706,0.670,�k��,9.8,��
2020/03/24,09:00,0.709,1.022,0.679,1.252,0.894,0.402,0.704,0.670,�k��,11.9,��
2020/03/24,09:10,0.709,1.021,0.678,1.252,0.895,0.403,0.705,0.670,�k��,12.5,��
2020/03/24,09:20,0.710,1.021,0.677,1.254,0.892,0.400,0.706,0.670,�k��,11.1,��
2020/03/24,09:30,0.708,1.016,0.677,1.253,0.896,0.401,0.703,0.666,�k��,10.6,��
2020/03/24,09:40,0.709,1.021,0.676,1.253,0.894,0.402,0.705,0.669,�k��,11.0,��
2020/03/24,09:50,0.709,1.025,0.678,1.256,0.896,0.403,0.704,0.667,�k��,9.6,��
2020/03/24,10:00,0.709,1.022,0.677,1.252,0.896,0.401,0.705,0.668,�k��,7.7,��
2020/03/24,10:10,0.710,1.023,0.679,1.254,0.895,0.401,0.705,0.667,���k��,11.3,��
2020/03/24,10:20,0.707,1.020,0.677,1.254,0.897,0.402,0.705,0.666,���k��,10.0,��
2020/03/24,10:30,0.710,1.018,0.679,1.254,0.896,0.401,0.706,0.665,���k��,9.0,��
2020/03/24,10:40,0.709,1.023,0.680,1.253,0.898,0.401,0.704,0.667,���k��,10.3,��
2020/03/24,10:50,0.709,1.019,0.678,1.257,0.898,0.401,0.704,0.667,�k��,7.8,��
2020/03/24,11:00,0.709,1.023,0.679,1.255,0.897,0.401,0.705,0.667,���k��,6.7,��
2020/03/24,11:10,0.711,1.020,0.677,1.256,0.897,0.399,0.706,0.668,�k��,12.2,��
2020/03/24,11:20,0.711,1.024,0.679,1.255,0.900,0.401,0.706,0.667,�k��,8.2,��
2020/03/24,11:30,0.711,1.024,0.678,1.256,0.898,0.401,0.705,0.666,�k��,7.9,�L
2020/03/24,11:40,0.711,1.021,0.679,1.257,0.896,0.400,0.705,0.667,�k�k��,8.3,�L
2020/03/24,11:50,0.707,1.022,0.677,1.256,0.896,0.402,0.704,0.666,�k,9.0,��
2020/03/24,12:00,0.708,1.026,0.678,1.256,0.898,0.400,0.705,0.666,�k,6.9,��
2020/03/24,12:10,0.708,1.027,0.678,1.255,0.896,0.401,0.704,0.668,�k�k��,6.1,��
2020/03/24,12:20,0.706,1.025,0.678,1.255,0.897,0.402,0.705,0.667,�k�k��,4.9,��
2020/03/24,12:30,0.710,1.026,0.679,1.257,0.896,0.402,0.703,0.665,�k��,7.3,��
2020/03/24,12:40,0.710,1.026,0.680,1.257,0.896,0.402,0.703,0.666,�k��,7.6,��
2020/03/24,12:50,0.711,1.026,0.681,1.259,0.898,0.403,0.703,0.666,�k��,9.2,��
2020/03/24,13:00,0.710,1.027,0.679,1.257,0.896,0.403,0.705,0.668,�k��,8.5,��
2020/03/24,13:10,0.709,1.027,0.680,1.257,0.896,0.403,0.704,0.668,�k��,10.0,��
2020/03/24,13:20,0.713,1.025,0.678,1.258,0.895,0.402,0.703,0.666,�k��,7.9,��
2020/03/24,13:30,0.710,1.024,0.676,1.257,0.897,0.402,0.704,0.668,�k��,9.9,��
2020/03/24,13:40,0.710,1.026,0.680,1.257,0.898,0.401,0.703,0.668,�k��,10.5,��
2020/03/24,13:50,0.710,1.023,0.679,1.259,0.899,0.403,0.703,0.668,�k��,9.0,��
2020/03/24,14:00,0.709,1.024,0.678,1.257,0.896,0.402,0.704,0.668,�k��,7.6,��
2020/03/24,14:10,0.708,1.027,0.679,1.257,0.897,0.402,0.705,0.670,�k��,9.0,��
2020/03/24,14:20,0.710,1.021,0.679,1.254,0.897,0.402,0.704,0.670,�k��,10.7,��
2020/03/24,14:30,0.709,1.023,0.678,1.256,0.899,0.403,0.705,0.669,�k��,12.0,��
2020/03/24,14:40,0.709,1.023,0.677,1.259,0.897,0.402,0.704,0.669,�k��,10.0,��
2020/03/24,14:50,0.710,1.021,0.679,1.259,0.899,0.402,0.704,0.668,�k��,11.0,��
2020/03/24,15:00,0.709,1.025,0.679,1.259,0.899,0.403,0.706,0.668,�k��,7.8,��
2020/03/24,15:10,0.710,1.031,0.678,1.254,0.901,0.402,0.705,0.667,�k�k��,7.3,��
2020/03/24,15:20,0.707,1.027,0.678,1.255,0.899,0.403,0.705,0.668,�k��,6.3,��
2020/03/24,15:30,0.710,1.028,0.680,1.256,0.900,0.402,0.704,0.667,�k�k��,7.3,��
2020/03/24,15:40,0.708,1.028,0.678,1.255,0.897,0.402,0.706,0.668,�k��,11.4,��
2020/03/24,15:50,0.708,1.026,0.677,1.258,0.896,0.401,0.705,0.666,�k��,9.6,��
2020/03/24,16:00,0.711,1.029,0.678,1.256,0.898,0.401,0.703,0.666,�k��,10.2,��
2020/03/24,16:10,0.711,1.031,0.680,1.258,0.897,0.402,0.702,0.667,�k��,9.3,��
2020/03/24,16:20,0.710,1.031,0.681,1.259,0.899,0.402,0.704,0.668,�k��,11.3,��
2020/03/24,16:30,0.710,1.032,0.677,1.258,0.898,0.401,0.704,0.669,�k��,9.1,��
2020/03/24,16:40,0.710,1.034,0.678,1.258,0.898,0.402,0.703,0.669,���k��,6.2,��
2020/03/24,16:50,0.709,1.034,0.678,1.257,0.898,0.402,0.704,0.669,�k��,8.3,��
2020/03/24,17:00,0.708,1.034,0.679,1.258,0.898,0.402,0.702,0.669,�k��,9.4,��
2020/03/24,17:10,0.710,1.034,0.678,1.255,0.901,0.401,0.704,0.670,�k��,8.9,��
2020/03/24,17:20,0.709,1.030,0.681,1.260,0.898,0.402,0.704,0.669,�k��,7.6,��
2020/03/24,17:30,0.710,1.032,0.679,1.257,0.898,0.402,0.704,0.669,�k��,8.1,��
2020/03/24,17:40,0.709,1.033,0.677,1.256,0.899,0.402,0.705,0.668,�k��,9.0,��
2020/03/24,17:50,0.707,1.033,0.678,1.257,0.900,0.401,0.706,0.669,�k��,8.8,��
2020/03/24,18:00,0.711,1.032,0.679,1.256,0.899,0.401,0.707,0.669,�k��,8.7,��
2020/03/24,18:10,0.709,1.033,0.676,1.258,0.901,0.401,0.706,0.670,�k��,8.0,��
2020/03/24,18:20,0.709,1.032,0.680,1.257,0.898,0.403,0.704,0.668,�k��,7.4,��
2020/03/24,18:30,0.711,1.033,0.680,1.257,0.898,0.401,0.706,0.670,�k��,6.4,��
2020/03/24,18:40,0.710,1.030,0.680,1.257,0.899,0.403,0.705,0.669,�k��,8.3,��
2020/03/24,18:50,0.710,1.032,0.678,1.257,0.900,0.402,0.707,0.670,�k��,9.3,��
2020/03/24,19:00,0.709,1.032,0.680,1.256,0.898,0.402,0.706,0.668,�k��,10.5,��
2020/03/24,19:10,0.710,1.032,0.678,1.256,0.900,0.402,0.707,0.670,�k��,7.3,��
2020/03/24,19:20,0.708,1.032,0.679,1.258,0.898,0.401,0.706,0.670,�k��,7.4,��
2020/03/24,19:30,0.708,1.032,0.678,1.257,0.899,0.401,0.705,0.670,�k�k��,5.2,��
2020/03/24,19:40,0.708,1.031,0.679,1.256,0.897,0.400,0.705,0.667,�k��,4.6,��
2020/03/24,19:50,0.709,1.029,0.679,1.255,0.900,0.401,0.706,0.668,�k��,5.5,��
2020/03/24,20:00,0.709,1.030,0.679,1.257,0.898,0.400,0.705,0.669,�k��,5.5,��
2020/03/24,20:10,0.708,1.033,0.679,1.257,0.899,0.402,0.705,0.669,�k��,7.0,��
2020/03/24,20:20,0.708,1.033,0.679,1.257,0.898,0.401,0.705,0.669,�k��,5.3,��
2020/03/24,20:30,0.708,1.030,0.677,1.258,0.903,0.401,0.705,0.669,�k��,5.2,��
2020/03/24,20:40,0.707,1.031,0.678,1.256,0.898,0.400,0.706,0.669,�k��,6.5,��
2020/03/24,20:50,0.709,1.031,0.680,1.259,0.899,0.400,0.705,0.667,�k�k��,6.8,��
2020/03/24,21:00,0.709,1.033,0.677,1.258,0.900,0.400,0.705,0.670,�k��,6.4,��
2020/03/24,21:10,0.708,1.031,0.679,1.257,0.898,0.402,0.704,0.669,�k��,7.3,��
2020/03/24,21:20,0.707,1.032,0.678,1.258,0.898,0.401,0.706,0.669,�k��,6.3,��
2020/03/24,21:30,0.706,1.029,0.676,1.256,0.896,0.401,0.706,0.668,�k�k��,5.9,��
2020/03/24,21:40,0.707,1.032,0.678,1.258,0.898,0.400,0.703,0.668,�k�k��,6.6,��
2020/03/24,21:50,0.709,1.032,0.678,1.257,0.899,0.401,0.706,0.670,�k�k��,6.4,��
2020/03/24,22:00,0.709,1.030,0.678,1.258,0.898,0.400,0.705,0.668,�k�k��,5.7,��
2020/03/24,22:10,0.708,1.030,0.678,1.258,0.898,0.402,0.704,0.667,�k�k��,5.7,��
2020/03/24,22:20,0.706,1.030,0.678,1.258,0.899,0.402,0.703,0.667,�k��,6.1,��
2020/03/24,22:30,0.708,1.031,0.679,1.257,0.899,0.400,0.705,0.668,�k��,7.1,��
2020/03/24,22:40,0.706,1.031,0.678,1.256,0.898,0.400,0.704,0.667,�k��,6.6,��
2020/03/24,22:50,0.708,1.031,0.678,1.257,0.899,0.401,0.704,0.669,�k��,7.6,��
2020/03/24,23:00,0.708,1.029,0.677,1.258,0.899,0.400,0.704,0.668,�k��,4.5,��
2020/03/24,23:10,0.707,1.030,0.677,1.258,0.900,0.400,0.704,0.669,�k��,4.8,��
2020/03/24,23:20,0.707,1.032,0.677,1.256,0.899,0.401,0.703,0.669,�k�k��,4.3,��
2020/03/24,23:30,0.707,1.028,0.677,1.257,0.900,0.401,0.704,0.667,�k��,4.6,��
2020/03/24,23:40,0.706,1.030,0.676,1.258,0.898,0.400,0.704,0.669,�k��,5.3,��
2020/03/24,23:50,0.707,1.030,0.678,1.255,0.897,0.401,0.702,0.668,�k��,3.4,��
